Погода в Артике

Армения     40°37′11″N   43°58′14″E
темп.,
°C
ветер,
м/с
пор.,
м/с
влажн.,
%
обл.,
%
осадки,
мм/ч
давл.,
гПа
погр.,
м
6 марта, сб
сб601:00−9зсз01330 0.0 102721
04:00−9в01350 0.0 102821
07:00−9юв12320 0.0 102921
10:00−5ююв23570 0.0 102836
13:00−3ю46610 0.0 1025209
16:00−3ю35610 0.0 1022116
19:00−7ююв344113 0.0 102325
22:00−7ююв344549 0.0 102424
7 марта, вс
вс701:00−8ююв234779 0.0 102324
04:00−6ююв235590 0.0 102226
07:00−6ю2259100 0.0 102131
10:00−5ююз266893 0.0 1020460
13:00−3юз346992 0.0 1017633
16:00−3ююз237496 0.0 1016789
19:00−6юв1289100 0.3 101824
22:00−7юв1188100 0.4 102021
8 марта, пн
пн801:00−9юв128994 0.2 102021
04:00−8ююв129497 0.3 102024
07:00−7юв229398 0.2 101950
10:00−5ю239699 0.6 1018252
13:00−4ю1397100 3.5 1015252
16:00−4ю1398100 6.9 1012251
19:00−6ссв2396100 4.3 101383
22:00−8ссв349192 5.8 101554
9 марта, вт
вт901:00−10с239094 0.1 101730
04:00−12ссв238862 0.1 101824
07:00−12с23842 0.0 101922
10:00−8зюз12851 0.0 1020125
13:00−7юз22800 0.0 1018382
16:00−7зюз226810 0.0 1017528
19:00−11с1264100 0.0 102022
22:00−11св1258100 0.0 102321
10 марта, ср
ср1001:00−12ю025669 0.0 102421
04:00−12ююв125961 0.0 102423
07:00−13ююв22591 0.0 102523
10:00−8ю34751 0.0 1023144
13:00−6ю458077 0.0 1020401
16:00−5ю458289 0.0 1017465
19:00−8ююв3586100 0.1 1017118
22:00−7ююв4689100 0.4 1017165